ANA1729 ROAH-ROMY

Flight info

Callsign ANA1729
Flight time N/A
Altitude 22000
Route GANJU Y576 YUTAH
Aircraft A320/M-SDE2E3FGHIRWXY/LB1

Departure

Time 2026-04-22 11:58
Airport Naha International Airport (ROAH)

Arrival

Time N/A
Airport Miyako Airport (ROMY)
Time Latitude Longitude Altitude Speed Heading
2026-04-22 11:30 26.20565 127.65002 34 ft 0 kts 147°
2026-04-22 11:50 26.20565 127.65001 34 ft 0 kts 147°
2026-04-22 11:51 26.20576 127.64992 33 ft 2 kts 148°
2026-04-22 11:51 26.20589 127.64984 33 ft 2 kts 147°
2026-04-22 11:51 26.20602 127.64975 32 ft 2 kts 138°
2026-04-22 11:51 26.20610 127.64960 31 ft 2 kts 112°
2026-04-22 11:52 26.20613 127.64945 29 ft 1 kts 90°
2026-04-22 11:52 26.20619 127.64935 29 ft 1 kts 159°
2026-04-22 11:52 26.20631 127.64935 29 ft 1 kts 216°
2026-04-22 11:52 26.20638 127.64947 30 ft 1 kts 270°
2026-04-22 11:53 26.20637 127.64962 31 ft 1 kts 265°
2026-04-22 11:53 26.20637 127.64964 31 ft 0 kts 263°
2026-04-22 11:55 26.20636 127.64949 30 ft 5 kts 268°
2026-04-22 11:55 26.20633 127.64871 23 ft 14 kts 267°
2026-04-22 11:55 26.20651 127.64763 18 ft 13 kts 315°
2026-04-22 11:55 26.20739 127.64739 19 ft 13 kts 359°
2026-04-22 11:56 26.20826 127.64737 21 ft 12 kts 359°
2026-04-22 11:56 26.20913 127.64734 22 ft 11 kts 357°
2026-04-22 11:56 26.20976 127.64691 23 ft 10 kts 285°
2026-04-22 11:56 26.20977 127.64615 26 ft 8 kts 265°
2026-04-22 11:57 26.20955 127.64561 28 ft 8 kts 225°
2026-04-22 11:57 26.20898 127.64529 27 ft 11 kts 186°
2026-04-22 11:57 26.20692 127.64534 25 ft 61 kts 178°
2026-04-22 11:57 26.20029 127.64564 28 ft 125 kts 178°
2026-04-22 11:58 26.18996 127.64612 186 ft 162 kts 179°
2026-04-22 11:58 26.17875 127.64667 832 ft 161 kts 179°
2026-04-22 11:58 26.16906 127.64710 1403 ft 164 kts 180°